Printer-friendly version

IAU Minor Planet Center

Minor Planet Center

MPEC 2006-Y25 : 2006 YP

The following Minor Planet Electronic Circular may be linked-to from your own Web pages, but must not otherwise be redistributed electronically.


Read MPEC 2006-Y24 Read MPEC 2006-Y26


M.P.E.C. 2006-Y25                                Issued 2006 Dec. 20, 14:37 UT

     The Minor Planet Electronic Circulars contain information on unusual
         minor planets and routine data on comets.  They are published
   on behalf of Commission 20 of the International Astronomical Union by the
          Minor Planet Center, Smithsonian Astrophysical Observatory,
                          Cambridge, MA 02138, U.S.A.

             Prepared using the Tamkin Foundation Computer Network

                              MPC@CFA.HARVARD.EDU
          URL http://cfa-www.harvard.edu/iau/mpc.html  ISSN 1523-6714

                                    2006 YP

Observations:
     K06Y00P* C2006 12 17.32450 08 20 02.18 +42 57 57.7          19.2 V EY025703
     K06Y00P  C2006 12 17.33523 08 20 07.72 +42 59 03.7          19.7 V EY025703
     K06Y00P  C2006 12 17.34704 08 20 13.84 +43 00 15.0          19.7 V EY025703
     K06Y00P  C2006 12 17.35789 08 20 19.42 +43 01 21.3          19.3 V EY025703
     K06Y00P  C2006 12 20.37124 08 54 15.33 +48 14 06.0          20.0 V EY025703
     K06Y00P  C2006 12 20.37639 08 54 19.15 +48 14 38.9          19.4 V EY025703
     K06Y00P  C2006 12 20.38153 08 54 23.00 +48 15 14.0          19.2 V EY025703
     K06Y00P  C2006 12 20.38693 08 54 27.03 +48 15 48.3          19.0 V EY025703
     K06Y00P  C2006 12 20.47826 08 55 34.96 +48 25 34.1          19.6 V EY025703
     K06Y00P  C2006 12 20.48179 08 55 37.73 +48 25 55.8          19.7 V EY025703
     K06Y00P  C2006 12 20.48530 08 55 40.42 +48 26 18.7          19.2 V EY025703

Observer details:
703 Catalina Sky Survey.  Observers A. R. Gibbs, R. A. Kowalski.  Measurers
    E. C. Beshore, E. J. Christensen, G. J. Garradd, A. R. Gibbs, A. D. Grauer,
    R. E. Hill, R. A. Kowalski, S. M. Larson, R. H. McNaught.  0.68-m Schmidt
    + CCD.

Orbital elements:
2006 YP                                                  Earth MOID = 0.0251 AU
Epoch 2007 Apr. 10.0 TT = JDT 2454200.5                 MPC
M  36.69167              (2000.0)            P               Q
n   0.80603792     Peri.   95.40476     -0.96096415     -0.26251869
a   1.1434901      Node    69.39852     +0.20214135     -0.88176964
e   0.2103675      Incl.    5.35514     +0.18890943     -0.39187529
P   1.22           H   23.5           G   0.15           U   8
Residuals in seconds of arc
061217 703  0.4-  0.6+    061220 703  0.0   0.3+    061220 703  1.0-  0.0
061217 703  0.3-  0.6+    061220 703  0.1-  0.7-    061220 703  0.1+  0.4-
061217 703  0.3+  0.6-    061220 703  0.2+  0.6+    061220 703  0.6+  0.6+
061217 703  0.4+  0.6-    061220 703  0.3+  0.5-

Ephemeris:
2006 YP                  a,e,i = 1.14, 0.21, 5                   q = 0.9029
Date    TT    R. A. (2000) Decl.     Delta      r     Elong.  Phase     V
2006 12 21    09 02.96   +49 20.7    0.0680   1.033   135.2    42.1    19.4
2006 12 23    09 35.94   +52 49.8    0.0642   1.027   130.6    46.7    19.4
2006 12 25    10 17.93   +55 54.4    0.0612   1.020   125.2    52.0    19.4
2006 12 27    11 09.42   +58 04.4    0.0591   1.014   119.1    57.9    19.5
2006 12 29    12 07.59   +58 49.0    0.0580   1.007   112.7    64.3    19.6
2006 12 31    13 06.01   +57 53.5    0.0580   1.001   106.0    70.8    19.8
2007 01 02    13 58.10   +55 29.2    0.0589   0.995    99.5    77.1    20.0
2007 01 04    14 40.78   +52 05.0    0.0608   0.989    93.3    83.2    20.3
2007 01 06    15 14.36   +48 11.7    0.0634   0.983    87.6    88.7    20.6
2007 01 08    15 40.55   +44 11.7    0.0668   0.977    82.6    93.6    20.9
2007 01 10    16 01.18   +40 19.0    0.0707   0.971    78.1    97.8    21.2
2007 01 12    16 17.71   +36 40.5    0.0751   0.966    74.3   101.5    21.5
2007 01 14    16 31.22   +33 18.8    0.0799   0.960    71.0   104.5    21.8
2007 01 16    16 42.49   +30 14.4    0.0851   0.955    68.2   107.1    22.0
2007 01 18    16 52.08   +27 26.1    0.0905   0.950    65.8   109.2    22.3
2007 01 20    17 00.38   +24 52.5    0.0962   0.946    63.9   110.9    22.5

Timothy B. Spahr             (C) Copyright 2006 MPC           M.P.E.C. 2006-Y25

Read MPEC 2006-Y24 Read MPEC 2006-Y26


Our Web policy. Index to the CBAT/MPC/ICQ pages.


Valid HTML 4.01!